Zurück zum Katalog

COSMOS 1470

AktivMilitärPO
NORAD 14147·PAYLOAD·🇷🇺 Russia

Gestartet Jun 23, 1983 von Plesetsk Cosmodrome

Loading…

Nächste Überflüge (nächste 24 Stunden)

TLE

AktuellSource: Space-Track

Epoche: Sep 14, 2026, 15:05 UTC

1 14147U 83061A   26257.62873211  .00014806  00000-0  26237-3 0  9999
2 14147  82.4628 280.6135 0007409  52.2712 307.9210 15.50087091116942

Verfolge COSMOS 1470 in Echtzeit mit AllMySat

Download on the App Store